Location: ??
(35.1714°N, 128.2806°E)
Time: 15:12:25
(UTC+00:00)

ATLAS CENTAUR Rocket - Pass Details

Date: 29 October 2020
Orbit: 649 x 36598 km, 28.3° (Epoch: 30 November)

Event Time Altitude Azimuth Distance (km) Brightness Sun altitude
Exits shadow 19:16:13 13° 162° (SSE) 2,024 4.3 -31.1°
Drops below altitude 10° 19:16:46 10° 156° (SSE) 2,181 4.5 -31.0°
Sets 19:18:46 0° 140° (SE) 2,947 5.5 -30.6°
